EW0199 Weather Reports


Display with metric or nautical units.
time (UTC)temp
F
wind
direction
speed
MPH
gust
MPH
rain 1hr
in
rain 24hr
in
rain mn
in
humidity
%
barometer
mb
20260902115409 62 279 0.0 2.0 0.02 0.24 0.24 97 1012.1
20260902114837 62 279 0.0 2.0 0.03 0.24 0.24 97 1012.0
20260902114406 62 278 0.0 0.0 0.04 0.24 0.24 97 1011.8
20260902113825 62 279 0.0 0.0 0.05 0.24 0.24 97 1011.4
20260902113351 62 278 0.0 0.0 0.06 0.24 0.24 97 1011.5
20260902112915 62 278 0.0 1.0 0.08 0.24 0.24 97 1011.3
20260902112337 62 278 0.0 1.0 0.10 0.24 0.24 97 1010.9
20260902111908 62 278 0.0 1.0 0.12 0.24 0.24 97 1010.5
20260902111330 62 278 0.0 1.0 0.14 0.24 0.24 96 1010.8
20260902110838 62 278 0.0 1.0 0.17 0.24 0.24 96 1011.0
20260902110341 62 278 0.0 1.0 0.19 0.24 0.24 96 1011.0
20260902105909 62 278 0.0 1.0 0.20 0.24 0.24 96 1010.6
20260902105326 62 44 0.0 1.0 0.19 0.22 0.22 96 1010.4
20260902104836 63 89 0.0 1.0 0.19 0.21 0.21 96 1011.0
20260902104409 63 95 0.0 4.0 0.18 0.20 0.20 95 1013.2
20260902103826 63 75 0.0 5.0 0.18 0.19 0.19 95 1014.9
20260902103348 63 326 0.0 8.0 0.17 0.17 0.17 95 1015.6
20260902102917 63 299 2.0 8.0 0.15 0.15 0.15 95 1016.2
20260902102335 63 300 1.0 3.0 0.14 0.14 0.14 95 1016.0
20260902101859 63 282 1.0 3.0 0.12 0.12 0.12 95 1015.7
20260902101401 63 292 1.0 3.0 0.08 0.08 0.10 95 1015.7
20260902100342 64 321 1.0 3.0 0.05 0.05 0.05 95 1015.9
20260902095345 64 276 0.0 2.0 0.03 0.03 0.03 95 1015.5
20260902094912 64 298 0.0 1.0 0.02 0.02 0.02 95 1015.2
20260902094421 64 296 0.0 3.0 0.02 0.02 0.02 96 1014.7
20260902093849 64 296 0.0 3.0 0.01 0.01 0.01 96 1014.1
20260902092846 63 290 0.0 1.0 0.00 0.00 0.00 97 1013.6
20260902092354 63 290 0.0 1.0 0.00 0.00 0.00 97 1013.3
20260902091920 63 290 0.0 0.0 0.00 0.00 0.00 97 1013.1
20260902091342 63 290 0.0 0.0 0.00 0.00 0.00 97 1013.0
20260902090915 63 290 0.0 0.0 0.00 0.00 0.00 97 1012.8
20260902090344 63 290 0.0 0.0 0.00 0.00 0.00 97 1012.6
20260902085910 63 290 0.0 1.0 0.00 0.00 0.00 97 1012.5
20260902085333 63 290 0.0 1.0 0.00 0.00 0.00 97 1012.2
20260902084342 63 290 0.0 0.0 0.00 0.00 0.00 97 1011.9
20260902083833 63 290 0.0 1.0 0.00 0.00 0.00 97 1011.7
20260902083356 63 290 0.0 1.0 0.00 0.00 0.00 97 1011.9
20260902082905 63 290 0.0 0.0 0.00 0.00 0.00 97 1012.0
20260902082322 63 290 0.0 0.0 0.00 0.00 0.00 97 1012.0
20260902081845 63 290 0.0 0.0 0.00 0.00 0.00 97 1011.9
20260902080843 63 290 0.0 0.0 0.00 0.00 0.00 97 1011.9
20260902075833 63 290 0.0 0.0 0.00 0.00 0.00 96 1011.9
20260902075357 63 290 0.0 0.0 0.00 0.00 0.00 96 1011.7
20260902074921 63 290 0.0 0.0 0.00 0.00 0.00 96 1011.6
20260902074329 63 290 0.0 0.0 0.00 0.00 0.00 96 1011.7
20260902073859 63 290 0.0 0.0 0.00 0.00 0.00 96 1011.7
20260902073427 63 290 0.0 0.0 0.00 0.00 0.00 96 1011.6
20260902072833 63 290 0.0 0.0 0.00 0.00 0.00 95 1011.6
20260902072357 63 290 0.0 0.0 0.00 0.00 0.00 95 1011.5
20260902071921 64 290 0.0 0.0 0.00 0.00 0.00 95 1011.4
20260902071345 64 290 0.0 0.0 0.00 0.00 0.00 95 1011.6
20260902070904 64 290 0.0 0.0 0.00 0.00 0.00 95 1011.5
20260902070407 64 290 0.0 0.0 0.00 0.00 0.00 95 1011.7
20260902065859 65 290 0.0 0.0 0.00 0.00 0.00 94 1012.0
20260902065330 65 290 0.0 0.0 0.00 0.00 0.00 94 1011.8
20260902064837 65 290 0.0 0.0 0.00 0.00 0.00 94 1012.0
20260902064322 66 290 0.0 0.0 0.00 0.00 0.00 93 1012.1
20260902063848 66 290 0.0 0.0 0.00 0.00 0.00 93 1012.0
20260902063334 66 290 0.0 0.0 0.00 0.00 0.00 93 1012.0
20260902062841 67 290 0.0 0.0 0.00 0.00 0.00 93 1011.9
20260902062327 67 290 0.0 0.0 0.00 0.00 0.00 93 1011.9
20260902061835 67 290 0.0 0.0 0.00 0.00 0.00 93 1011.9
20260902061341 67 290 0.0 0.0 0.00 0.00 0.00 93 1012.0
20260902060828 67 290 0.0 0.0 0.00 0.00 0.00 92 1012.0
20260902060355 68 290 0.0 0.0 0.00 0.00 0.00 92 1011.9
20260902055824 68 290 0.0 0.0 0.00 0.00 0.00 92 1011.7
20260902055332 68 290 0.0 0.0 0.00 0.00 0.00 91 1011.8
20260902054838 68 290 0.0 0.0 0.00 0.00 0.00 90 1011.8
20260902054325 68 290 0.0 0.0 0.00 0.00 0.00 90 1011.9
20260902053832 68 290 0.0 1.0 0.00 0.00 0.00 90 1011.9
20260902053338 68 290 0.0 1.0 0.00 0.00 0.00 90 1011.9
20260902052825 69 290 0.0 0.0 0.00 0.00 0.00 91 1011.8
20260902052332 69 290 0.0 0.0 0.00 0.00 0.00 91 1011.7
20260902051838 69 290 0.0 1.0 0.00 0.00 0.00 91 1011.7
20260902051345 69 290 0.0 1.0 0.00 0.00 0.00 92 1011.7
20260902050831 69 290 0.0 0.0 0.00 0.00 0.00 92 1011.7
20260902050340 69 290 0.0 0.0 0.00 0.00 0.00 93 1011.7
20260902045941 69 290 0.0 1.0 0.00 0.00 0.00 92 1011.7
20260902045328 69 290 0.0 0.0 0.00 0.00 0.00 92 1011.7
20260902044851 69 290 0.0 0.0 0.00 0.00 0.00 92 1011.8
20260902044352 69 290 0.0 0.0 0.00 0.00 0.00 92 1011.7
20260902043901 69 290 0.0 0.0 0.00 0.00 0.00 91 1011.8
20260902043421 69 290 0.0 0.0 0.00 0.00 0.00 91 1011.7
20260902042842 70 290 0.0 0.0 0.00 0.00 0.00 91 1011.8
20260902042408 70 290 0.0 0.0 0.00 0.00 0.00 91 1011.7
20260902041825 70 290 0.0 0.0 0.00 0.00 0.00 91 1011.7
20260902041344 70 290 0.0 0.0 0.00 0.00 0.00 91 1011.7
20260902040853 70 290 0.0 0.0 0.00 0.00 0.00 92 1011.8
20260902040402 70 290 0.0 1.0 0.00 0.00 0.00 92 1011.8
20260902035910 70 290 0.0 1.0 0.00 0.00 0.00 91 1011.7
20260902035328 69 290 0.0 1.0 0.00 0.00 0.00 92 1011.7
20260902034836 69 290 0.0 1.0 0.00 0.00 0.00 92 1011.7
20260902034359 69 290 0.0 1.0 0.00 0.00 0.00 93 1011.7
20260902033906 69 290 0.0 0.0 0.00 0.00 0.00 93 1011.7
20260902032914 69 290 0.0 0.0 0.00 0.00 0.00 93 1011.5
20260902032338 69 290 0.0 0.0 0.00 0.00 0.00 92 1011.4
20260902031342 70 290 0.0 1.0 0.00 0.00 0.00 91 1011.4
20260902030344 70 290 0.0 0.0 0.00 0.00 0.00 90 1011.3
20260902025350 71 290 0.0 0.0 0.00 0.00 0.00 90 1011.2
20260902024919 71 290 0.0 0.0 0.00 0.00 0.00 90 1011.2
20260902024441 71 290 0.0 1.0 0.00 0.00 0.00 90 1011.3
20260902023838 71 290 0.0 1.0 0.00 0.00 0.00 91 1011.2
20260902023405 71 290 0.0 1.0 0.00 0.00 0.00 91 1011.2
20260902022913 71 290 0.0 0.0 0.00 0.00 0.00 91 1011.2
20260902022418 71 290 0.0 1.0 0.00 0.00 0.00 91 1011.3
20260902021941 71 290 0.0 1.0 0.00 0.00 0.00 92 1011.1
20260902021342 70 290 0.0 1.0 0.00 0.00 0.00 93 1011.1
20260902020344 69 290 0.0 0.0 0.00 0.00 0.00 94 1011.1
20260902015908 69 290 0.0 0.0 0.00 0.00 0.00 94 1011.2
20260902015326 69 290 0.0 0.0 0.00 0.00 0.00 93 1011.1
20260902014856 70 290 0.0 0.0 0.00 0.00 0.00 93 1011.1
20260902014324 70 290 0.0 0.0 0.00 0.00 0.00 93 1011.0
20260902013849 70 290 0.0 0.0 0.00 0.00 0.00 93 1010.9
20260902013417 70 290 0.0 0.0 0.00 0.00 0.00 92 1010.8
20260902012844 70 290 0.0 0.0 0.00 0.00 0.00 92 1010.8
20260902012418 71 290 0.0 0.0 0.00 0.00 0.00 91 1010.7
20260902011927 71 290 0.0 0.0 0.00 0.00 0.00 90 1010.7
20260902011438 71 290 0.0 0.0 0.00 0.00 0.00 90 1010.6
20260902010846 72 290 0.0 0.0 0.00 0.00 0.00 89 1010.6
20260902005851 73 290 0.0 0.0 0.00 0.00 0.00 88 1010.5
20260902005420 73 290 0.0 0.0 0.00 0.00 0.00 88 1010.4
20260902004846 74 290 0.0 0.0 0.00 0.00 0.00 87 1010.4
20260902004408 75 290 0.0 0.0 0.00 0.00 0.00 85 1010.3
20260902003344 77 290 0.0 0.0 0.00 0.00 0.00 82 1010.3
20260902002907 77 290 0.0 0.0 0.00 0.00 0.00 81 1010.3
20260902002325 78 290 0.0 0.0 0.00 0.00 0.00 79 1010.3
20260902001852 79 290 0.0 1.0 0.00 0.00 0.00 78 1010.3
20260902001421 80 290 0.0 1.0 0.00 0.00 0.00 77 1010.3
20260902000848 81 290 0.0 0.0 0.00 0.00 0.00 72 1010.3
20260902000353 82 290 0.0 0.0 0.00 0.00 0.00 70 1010.4
20260901235854 83 290 0.0 0.0 0.00 0.00 0.00 65 1010.4
20260901235322 83 290 0.0 1.0 0.00 0.00 0.00 64 1010.3
20260901234845 84 291 0.0 1.0 0.00 0.00 0.00 63 1010.3
20260901233850 84 290 0.0 1.0 0.00 0.00 0.00 62 1010.3
20260901233420 85 290 0.0 1.0 0.00 0.00 0.00 60 1010.4
20260901232842 86 290 0.0 1.0 0.00 0.00 0.00 58 1010.4
20260901232405 85 286 0.0 2.0 0.00 0.00 0.00 60 1010.4
20260901231823 85 320 0.0 3.0 0.00 0.00 0.00 59 1010.4
20260901231358 86 310 1.0 4.0 0.00 0.00 0.00 60 1010.3
20260901230859 86 302 0.0 4.0 0.00 0.00 0.00 57 1010.4
20260901230323 86 321 0.0 2.0 0.00 0.00 0.00 57 1010.4
20260901225847 87 290 0.0 2.0 0.00 0.00 0.00 56 1010.5
20260901225355 87 300 0.0 7.0 0.00 0.00 0.00 54 1010.6
20260901224919 88 328 1.0 7.0 0.00 0.00 0.00 54 1010.5
20260901224341 87 292 0.0 4.0 0.00 0.00 0.00 56 1010.6
20260901223908 87 291 1.0 7.0 0.00 0.00 0.00 55 1010.6
20260901223341 88 285 1.0 7.0 0.00 0.00 0.00 54 1010.6
20260901222907 89 328 0.0 2.0 0.00 0.00 0.00 54 1010.6
20260901222410 88 146 0.0 2.0 0.00 0.00 0.00 54 1010.6
20260901221828 87 231 0.0 4.0 0.00 0.00 0.00 54 1010.5
20260901221356 87 289 1.0 4.0 0.00 0.00 0.00 54 1010.4
20260901220920 87 234 0.0 2.0 0.00 0.00 0.00 54 1010.4
20260901220323 87 227 0.0 3.0 0.00 0.00 0.00 53 1010.4
20260901215853 88 293 1.0 4.0 0.00 0.00 0.00 53 1010.4
20260901215403 88 237 0.0 4.0 0.00 0.00 0.00 51 1010.3
20260901214930 89 274 0.0 4.0 0.00 0.00 0.00 50 1010.3
20260901214435 89 286 1.0 2.0 0.00 0.00 0.00 51 1010.3
20260901213825 90 279 0.0 4.0 0.00 0.00 0.00 51 1010.3
20260901213348 90 70 0.0 4.0 0.00 0.00 0.00 48 1010.3
20260901212911 91 160 0.0 3.0 0.00 0.00 0.00 48 1010.4
20260901212442 91 250 0.0 4.0 0.00 0.00 0.00 50 1010.5
20260901211846 90 150 1.0 6.0 0.00 0.00 0.00 50 1010.4
20260901211409 91 267 1.0 6.0 0.00 0.00 0.00 49 1010.4
20260901210825 91 236 1.0 6.0 0.00 0.00 0.00 50 1010.3
20260901210352 90 338 1.0 6.0 0.00 0.00 0.00 51 1010.4
20260901205823 90 202 0.0 7.0 0.00 0.00 0.00 52 1010.5
20260901205348 90 309 0.0 7.0 0.00 0.00 0.00 51 1010.4
20260901204349 90 181 2.0 7.0 0.00 0.00 0.00 52 1010.6
20260901203906 90 288 0.0 5.0 0.00 0.00 0.00 52 1010.6
20260901203325 90 275 1.0 8.0 0.00 0.00 0.00 53 1010.6
20260901202857 91 312 1.0 6.0 0.00 0.00 0.00 49 1010.6
20260901202351 91 150 2.0 7.0 0.00 0.00 0.00 50 1010.7
20260901201905 91 312 0.0 4.0 0.00 0.00 0.00 51 1010.6
20260901201410 91 290 0.0 4.0 0.00 0.00 0.00 52 1010.6
20260901200836 90 250 0.0 5.0 0.00 0.00 0.00 53 1010.8
20260901200403 90 320 1.0 6.0 0.00 0.00 0.00 49 1010.9
20260901195905 90 303 2.0 9.0 0.00 0.00 0.00 49 1010.9
20260901195325 90 231 2.0 9.0 0.00 0.00 0.00 51 1011.0
20260901194853 91 255 2.0 7.0 0.00 0.00 0.00 47 1011.0
20260901194417 91 113 0.0 4.0 0.00 0.00 0.00 49 1011.0
20260901193834 91 269 0.0 4.0 0.00 0.00 0.00 50 1010.9
20260901193338 90 226 0.0 3.0 0.00 0.00 0.00 51 1011.0
20260901192846 91 312 0.0 5.0 0.00 0.00 0.00 50 1011.1
20260901191844 91 286 0.0 2.0 0.00 0.00 0.00 50 1011.1
20260901190844 91 223 0.0 2.0 0.00 0.00 0.00 48 1011.1
20260901185832 91 100 0.0 2.0 0.00 0.00 0.00 48 1011.3
20260901185341 90 282 0.0 2.0 0.00 0.00 0.00 48 1011.3
20260901184902 90 210 0.0 2.0 0.00 0.00 0.00 46 1011.4
20260901184332 90 302 0.0 4.0 0.00 0.00 0.00 46 1011.5
20260901183836 90 226 1.0 4.0 0.00 0.00 0.00 47 1011.4
20260901183400 90 282 0.0 2.0 0.00 0.00 0.00 48 1011.5
20260901182926 90 325 0.0 5.0 0.00 0.00 0.00 51 1011.6
20260901182325 90 289 1.0 3.0 0.00 0.00 0.00 50 1011.7
20260901181849 90 230 0.0 2.0 0.00 0.00 0.00 54 1011.6
20260901180844 89 227 0.0 2.0 0.00 0.00 0.00 55 1011.6
20260901180327 89 282 0.0 3.0 0.00 0.00 0.00 58 1011.7
20260901175851 89 191 0.0 3.0 0.00 0.00 0.00 57 1011.8
20260901175401 88 237 0.0 1.0 0.00 0.00 0.00 56 1011.8
20260901174919 89 230 0.0 1.0 0.00 0.00 0.00 56 1011.9
20260901174323 88 106 0.0 2.0 0.00 0.00 0.00 56 1012.0
20260901173845 87 215 0.0 1.0 0.00 0.00 0.00 57 1012.0
20260901172845 86 89 0.0 4.0 0.00 0.00 0.00 58 1012.2
20260901172418 86 256 1.0 4.0 0.00 0.00 0.00 60 1012.2
20260901171941 87 304 2.0 4.0 0.00 0.00 0.00 59 1012.3
20260901171341 87 219 0.0 2.0 0.00 0.00 0.00 58 1012.4
20260901170349 87 94 0.0 1.0 0.00 0.00 0.00 63 1012.6
20260901165851 86 231 0.0 1.0 0.00 0.00 0.00 66 1012.6
20260901165353 85 275 0.0 1.0 0.00 0.00 0.00 66 1012.6
20260901164916 85 285 0.0 2.0 0.00 0.00 0.00 68 1012.6
20260901164342 85 24 0.0 2.0 0.00 0.00 0.00 64 1012.6
20260901163345 84 289 0.0 4.0 0.00 0.00 0.00 66 1012.7
20260901162856 84 299 1.0 4.0 0.00 0.00 0.00 66 1012.7
20260901162358 85 283 0.0 3.0 0.00 0.00 0.00 65 1012.8
20260901161921 85 309 0.0 1.0 0.00 0.00 0.00 65 1012.8
20260901161336 84 309 0.0 2.0 0.00 0.00 0.00 67 1012.9
20260901160856 84 305 1.0 2.0 0.00 0.00 0.00 67 1012.9
20260901160419 84 286 0.0 2.0 0.00 0.00 0.00 66 1013.0
20260901155841 84 35 0.0 1.0 0.00 0.00 0.00 70 1013.0
20260901155406 83 35 0.0 1.0 0.00 0.00 0.00 72 1013.0
20260901154830 83 274 0.0 1.0 0.00 0.00 0.00 71 1012.8
20260901154358 83 285 0.0 1.0 0.00 0.00 0.00 69 1012.9
20260901153905 83 307 0.0 0.0 0.00 0.00 0.00 71 1012.8
20260901153408 83 284 0.0 1.0 0.00 0.00 0.00 70 1012.9
20260901152923 82 283 0.0 1.0 0.00 0.00 0.00 72 1012.9
20260901152412 82 283 0.0 1.0 0.00 0.00 0.00 70 1012.9
20260901151917 81 75 0.0 0.0 0.00 0.00 0.00 73 1012.9
20260901151405 81 75 0.0 1.0 0.00 0.00 0.00 75 1012.9
20260901150823 80 75 0.0 1.0 0.00 0.00 0.00 74 1012.8
20260901150346 80 354 0.0 2.0 0.00 0.01 0.00 77 1012.9
20260901145852 80 354 0.0 1.0 0.00 0.01 0.00 77 1012.8
20260901145358 80 11 0.0 1.0 0.00 0.01 0.00 78 1012.9
20260901144921 79 321 0.0 1.0 0.00 0.01 0.00 82 1012.9
20260901144339 78 321 0.0 1.0 0.00 0.01 0.00 80 1012.9
20260901143906 78 319 0.0 1.0 0.00 0.01 0.00 82 1013.0
20260901142844 77 81 0.0 1.0 0.00 0.01 0.00 87 1013.0
20260901141846 75 24 0.0 1.0 0.00 0.01 0.00 98 1012.9
20260901140842 73 13 0.0 1.0 0.00 0.01 0.00 99 1013.0
20260901135839 73 323 0.0 0.0 0.00 0.01 0.00 99 1013.0
20260901135408 72 311 0.0 1.0 0.00 0.01 0.00 99 1013.0
20260901134827 72 312 0.0 1.0 0.00 0.01 0.00 99 1013.1
20260901134351 72 295 0.0 0.0 0.00 0.01 0.00 99 1013.1
20260901133913 71 295 0.0 0.0 0.00 0.01 0.00 99 1013.2
20260901133337 70 295 0.0 0.0 0.00 0.01 0.00 99 1013.2
20260901132341 69 295 0.0 0.0 0.00 0.01 0.00 99 1013.2
20260901131906 68 295 0.0 0.0 0.00 0.01 0.00 99 1013.2
20260901131414 68 295 0.0 0.0 0.00 0.01 0.00 99 1013.1
20260901130833 67 295 0.0 0.0 0.00 0.01 0.00 99 1013.1
20260901130402 67 295 0.0 0.0 0.00 0.01 0.00 99 1013.1
20260901125934 66 295 0.0 0.0 0.00 0.01 0.00 99 1013.1
20260901125336 65 295 0.0 0.0 0.00 0.01 0.00 99 1013.0
20260901124900 64 295 0.0 0.0 0.00 0.01 0.00 99 1012.9
20260901124428 64 294 0.0 0.0 0.00 0.01 0.00 99 1012.8
20260901123930 63 295 0.0 0.0 0.00 0.01 0.00 99 1012.7
20260901123437 62 295 0.0 0.0 0.00 0.01 0.00 99 1012.7
20260901122834 62 295 0.0 0.0 0.00 0.01 0.00 99 1012.7
20260901121842 61 295 0.0 0.0 0.00 0.01 0.00 99 1012.6
20260901121341 61 295 0.0 0.0 0.00 0.01 0.00 99 1012.6
20260901120343 61 295 0.0 0.0 0.00 0.01 0.00 99 1012.6